This is the latest recevied weather packets stored in our database for station/object AD7ZD. If no packets are shown the sender has not sent any weather packets the latest 10 day(s).
| Time | Temp. | Humidity | Pressure | Rain* | Wind** | Luminosity | Snow |
|---|---|---|---|---|---|---|---|
| 1778033229 | 17.78° C | 43% | 1009.7 hPa | 0 mm | - | 39 W/m² | - |
| 1778032927 | 18.33° C | 43% | 1009.8 hPa | 0 mm | - | 48 W/m² | - |
| 1778032624 | 18.33° C | 42% | 1009.7 hPa | 0 mm | - | 73 W/m² | - |
| 1778032322 | 18.33° C | 41% | 1009.5 hPa | 0 mm | - | 87 W/m² | - |
| 1778032019 | 17.78° C | 42% | 1009.5 hPa | 0 mm | - | 108 W/m² | - |
| 1778031714 | 18.33° C | 42% | 1009.7 hPa | 0 mm | - | 116 W/m² | - |
| 1778031412 | 18.33° C | 42% | 1010.1 hPa | 0 mm | - | 133 W/m² | - |
| 1778031109 | 18.89° C | 42% | 1010 hPa | 0 mm | - | 149 W/m² | - |
| 1778030805 | 18.89° C | 41% | 1009.7 hPa | 0 mm | - | 158 W/m² | - |
| 1778030502 | 18.89° C | 43% | 1009.8 hPa | 0 mm | - | 171 W/m² | - |
| 1778030200 | 18.33° C | 41% | 1009.8 hPa | 0 mm | - | 190 W/m² | - |
| 1778029895 | 18.89° C | 43% | 1010 hPa | 0 mm | - | 208 W/m² | - |
| 1778029595 | 18.89° C | 42% | 1010 hPa | 0 mm | - | 241 W/m² | - |
| 1778029291 | 18.89° C | 41% | 1009.8 hPa | 0 mm | - | 253 W/m² | - |
| 1778028988 | 18.89° C | 42% | 1009.8 hPa | 0 mm | - | 265 W/m² | - |
| 1778028685 | 18.89° C | 42% | 1010 hPa | 0 mm | - | 281 W/m² | - |
| 1778028381 | 17.78° C | 43% | 1010.1 hPa | 0 mm | - | 287 W/m² | - |
| 1778028079 | 18.89° C | 42% | 1010.2 hPa | 0 mm | - | 296 W/m² | - |
| 1778027775 | 18.89° C | 42% | 1009.8 hPa | 0 mm | - | 265 W/m² | - |
| 1778027471 | 18.89° C | 42% | 1010 hPa | 0 mm | - | 324 W/m² | - |
| 1778027167 | 18.89° C | 42% | 1009.7 hPa | 0 mm | - | 360 W/m² | - |
| 1778026863 | 18.33° C | 42% | 1010 hPa | 0 mm | - | 346 W/m² | - |
| 1778026559 | 18.33° C | 41% | 1010.1 hPa | 0 mm | - | 351 W/m² | - |
| 1778026257 | 18.89° C | 42% | 1009.8 hPa | 0 mm | - | 374 W/m² | - |
| 1778025954 | 18.33° C | 44% | 1009.8 hPa | 0 mm | - | 389 W/m² | - |
* Rain latest hour (hover to see other rain measurements)
** Current wind speed in m/s (hover to see current wind gust speed)